Regional Weather Roundup
Issued by NWS Jackson, KY

Home | Current Version | Previous Version | Graphics & Text | Print | Product List | Glossary On
Versions: 1 2 3 4 5 6 7 8 9 10 11 12 13 14 15 16 17 18 19 20 21 22 23 24 25 26 27 28 29 30 31 32 33 34 35 36 37 38 39 40 41 42 43 44 45 46 47 48 49 50
000
ASUS43 KJKL 311119
RWRJKL

EAST KENTUCKY HOURLY WEATHER ROUNDUP
NATIONAL WEATHER SERVICE JACKSON KY
700 AM EDT FRI OCT 31 2014

NOTE: "FAIR" INDICATES FEW OR NO CLOUDS BELOW 12,000 FEET WITH
NO SIGNIFICANT WEATHER AND/OR OBSTRUCTIONS TO VISIBILITY.

* THESE REPORTS ARE NOT UNDER NWS QUALITY CONTROL AND MAY NOT
  REPORT WEATHER SUCH AS PRECIPITATION AND FOG.

KYZ079-080-083-085-087-088-110-112-115-119-120-311200
...EASTERN KENTUCKY...

CITY           SKY/WX    TMP DP  RH WIND       PRES   REMARKS
JACKSON        CLOUDY    41  34  76 CALM      29.97F
LONDON         CLOUDY    42  39  89 CALM      29.98S
SOMERSET*      LGT RAIN  41  41 100 CALM      30.00F
MONTICELLO*    LGT RAIN  43  42  96 CALM      30.01R
WILLIAMSBURG*  PTCLDY    37  37 100 MISG      29.99S
MIDDLESBORO*   CLOUDY    37  37 100 CALM      29.99F FOG
HARLAN APT*    CLOUDY    37  37 100 CALM      29.98S VSB 1/2
HAZARD APT*    DRIZZLE   39  39 100 CALM      29.97F
BLACK MTN*       N/A     36  30  80 N3          N/A
PIKEVILLE APT* PTCLDY    36  36 100 CALM      29.96F
BIG SANDY*     CLOUDY    37  36  98 CALM      29.97F
MOREHEAD APT*  CLOUDY    41  37  87 CALM      30.00F
ASHLAND*       CLOUDY    37  34  87 CALM      29.97F
$$

KYZ035-036-041-042-044-050-067-078-099-311200
...CENTRAL KENTUCKY...

CITY           SKY/WX    TMP DP  RH WIND       PRES   REMARKS
MT STERLING*   LGT RAIN  41  41 100 CALM      30.00S
FLEMING/MASON* DRIZZLE   39  39 100 CALM      30.00S
DANVILLE*      LGT RAIN  41  41 100 CALM      30.00S
RICHMOND*      CLOUDY    41  39  93 CALM      29.98F
LEXINGTON      CLOUDY    46  41  82 CALM      29.99S
FRANKFORT      LGT RAIN  43  41  93 CALM      29.99S FOG
$$

KYZ091>093-OHZ055-061-077-WVZ005-015-034-035-042-311200
...SOUTHERN OHIO/WEST VIRGINIA...

CITY           SKY/WX    TMP DP  RH WIND       PRES   REMARKS
COVINGTON      CLOUDY    44  41  89 CALM      29.98S
COLUMBUS       CLOUDY    41  36  82 S3        29.97F
DAYTON         CLOUDY    44  37  76 SW7       29.97F
WILMINGTON     CLOUDY    41  37  86 S3        29.97F
HUNTINGTON     MOCLDY    36  36 100 CALM      29.98F
CHARLESTON     PTCLDY    34  33  96 CALM      29.98F
PINEVILLE*     CLOUDY    33  33 100 MISG      30.01F
BECKLEY        PTCLDY    31  28  89 CALM      29.94F
BLUEFIELD      MOCLDY    40  31  70 CALM      29.95S
$$

VAZ002-007-008-TNZ017-027-036-066-071-311200
...SOUTHWEST VIRGINIA/EAST TENNESSEE...

CITY           SKY/WX    TMP DP  RH WIND       PRES   REMARKS
WISE*          PTCLDY    36  36 100 CALM      29.95F
JONESVILLE*    MOSUNNY   36  36 100 CALM      29.99S FOG
ABINGDON*      CLEAR     38  36  91 CALM      29.95S
BRISTOL        PTCLDY    33  32  96 CALM      29.97S FOG
KNOXVILLE      MOCLDY    39  38  96 CALM      29.98R
OAK RIDGE      MOCLDY    40  38  93 CALM      30.00R
CROSSVILLE     CLOUDY    44  39  82 CALM      29.97F
NASHVILLE      CLOUDY    51  43  74 CALM      29.99S
$$

...KEY TO REMARKS...
VSB - VISIBILITY IN MILES
WCI - WIND CHILL INDEX
HX  - HEAT INDEX

$$



USA.gov is the U.S. government's official web portal to all federal, state and local government web resources and services.